User: anonymous   Login
Location: Dappach
(48.9767°N, 9.6998°E)
Time: 20:45:47
(UTC+00:00)
Language:

Okean 2 - Orbit

View from above orbital plane
View from above orbital plane
View from above satellite
View from above satellite

Ground track
Ground track

The orbit data is extracted from the following two-line orbital elements,

1 20510U 90018A   24197.51753095  .00006364  00000-0  42581-3 0  9996
2 20510  82.5116 202.6657 0009319 221.8650 260.6890 15.06751119848015
Epoch (UTC): 15 July 2024 12:25:14
Eccentricity: 0.0009319
inclination: 82.5116°
perigee height: 539 km
apogee height: 552 km
right ascension of ascending node: 202.6657°
argument of perigee: 221.8650°
revolutions per day: 15.06751119
mean anomaly at epoch: 260.6890°
orbit number at epoch: 84801

The dashed part of the orbit path shows where the satellite is in the earth's shadow,  

DLR